"startDT [UTC]","vpos","CH4 [ppm]","stdev(CH4) [ppm]","CO2 [ppm]","stdev(CO2) [ppm]","H2O_reported [%]","stdev(H2O_reported)","CavityPressure [torr]","CavityTemp [C]","OutletValve","CH4_dry [ppm]","CO2_dry [ppm]","DasTemp [C]","EtalonTemp [C]","WarmBoxTemp [C]","MPVPosition","T_ECpre [C]","T_EC1 [C]","T_EC2 [C]","p_inlet [hPa]","p_in [hPa]","p_out [hPa]","T_inlet [C]","RH_inlet [%]","dwpt_inlet [C]","T_vent [C]","RH_vent [%]","dwpt_vent [C]","flow_vent [l min-1]","flow_inlet [l min-1]","dwpt_sample [C]","T_room [C]"
2015-10-01 00:00:00,3.0,1.88128,0.01762,397.164,1.939,0.0996,0.1508,139.979,44.999,31570.57885,1.88509,397.618,36.809,45.066,44.999,0.00,0.09,-272.74,-272.80,-8,487,-945,21.6,13.5,-7.5,21.9,13.7,-7.1,5.73,2.06,-3.6,28.3
2015-10-01 00:01:00,3.0,1.87623,0.00046,397.073,0.046,0.0191,0.0015,139.997,44.998,31546.96601,1.87660,397.165,36.625,45.066,44.998,0.00,0.09,-272.73,-272.80,-8,487,-945,21.6,13.5,-7.5,21.8,13.7,-7.2,5.73,1.86,-3.6,28.2
2015-10-01 00:02:00,3.0,1.87626,0.00029,397.272,0.100,0.0181,0.0019,139.998,44.997,31539.93461,1.87656,397.354,36.391,45.065,44.997,0.00,0.09,-272.73,-272.79,-7,487,-945,21.5,13.7,-7.4,21.8,13.7,-7.1,5.73,1.75,-3.6,28.1
2015-10-01 00:03:00,3.0,1.87617,0.00043,397.457,0.043,0.0156,0.0016,140.000,44.996,31530.64328,1.87647,397.530,36.150,45.065,44.997,0.00,0.09,-272.74,-272.80,-7,488,-944,21.5,13.7,-7.4,21.8,13.8,-7.1,5.73,1.96,-3.6,28.1
2015-10-01 00:04:00,3.0,1.87614,0.00028,397.508,0.027,0.0134,0.0021,140.000,44.996,31521.23752,1.87639,397.572,35.916,45.065,44.997,0.00,0.09,-272.74,-272.80,-7,488,-944,21.5,13.7,-7.4,21.8,13.9,-7.0,5.73,2.07,-3.6,28.0
2015-10-01 00:05:00,3.0,1.87619,0.00039,397.529,0.035,0.0110,0.0019,140.000,44.995,31514.47962,1.87640,397.583,35.711,45.065,44.997,0.00,0.09,-272.73,-272.79,-8,488,-944,21.5,13.8,-7.3,21.7,14.0,-7.0,5.73,1.87,-3.6,28.0
2015-10-01 00:06:00,3.0,1.87624,0.00037,397.538,0.020,0.0092,0.0015,139.999,44.995,31508.10885,1.87639,397.581,35.539,45.065,44.998,0.00,0.09,-272.74,-272.80,-8,489,-944,21.4,13.9,-7.3,21.7,14.0,-7.0,5.73,1.74,-3.6,27.9
2015-10-01 00:07:00,3.0,1.87611,0.00028,397.542,0.036,0.0071,0.0020,140.001,44.996,31505.49818,1.87626,397.577,35.414,45.066,44.999,0.00,0.09,-272.74,-272.80,-7,489,-943,21.4,13.9,-7.3,21.7,14.0,-6.9,5.73,2.00,-3.6,27.8
2015-10-01 00:08:00,3.0,1.87612,0.00042,397.540,0.028,0.0063,0.0021,139.998,44.997,31502.69270,1.87623,397.570,35.371,45.067,45.000,0.00,0.09,-272.74,-272.79,-7,489,-943,21.5,13.7,-7.4,21.7,13.9,-7.1,5.73,2.02,-3.6,27.8
2015-10-01 00:09:00,3.0,1.87621,0.00034,397.558,0.030,0.0050,0.0024,140.001,44.998,31503.63048,1.87630,397.582,35.370,45.068,45.001,0.00,0.09,-272.73,-272.80,-8,490,-943,21.5,13.8,-7.3,21.7,14.0,-7.0,5.73,1.71,-3.7,27.9
2015-10-01 00:10:00,3.0,1.87647,0.00032,397.577,0.033,0.0041,0.0018,140.000,44.999,31502.89615,1.87653,397.597,35.390,45.069,45.001,0.00,0.09,-272.74,-272.80,-7,490,-943,21.6,13.9,-7.2,21.7,14.0,-6.9,5.73,2.08,-3.7,27.8
2015-10-01 00:11:00,3.0,1.87643,0.00032,397.562,0.036,0.0032,0.0020,139.998,45.000,31503.87357,1.87651,397.576,35.458,45.069,45.002,0.00,0.09,-272.73,-272.80,-7,490,-943,21.6,13.9,-7.2,21.7,14.1,-6.9,5.73,1.87,-3.6,27.8
2015-10-01 00:12:00,3.0,1.87665,0.00043,397.582,0.039,0.0031,0.0017,140.000,45.001,31506.36216,1.87669,397.597,35.508,45.069,45.002,0.00,0.09,-272.73,-272.79,-8,491,-944,21.7,13.7,-7.3,21.8,13.8,-7.1,5.73,1.83,-3.7,27.8
2015-10-01 00:13:00,3.0,1.87647,0.00036,397.565,0.026,0.0031,0.0019,140.002,45.001,31513.57617,1.87655,397.580,35.587,45.069,45.001,0.00,0.09,-272.74,-272.81,-8,491,-944,21.7,13.6,-7.4,21.8,13.7,-7.1,5.73,2.08,-3.7,27.9
2015-10-01 00:14:00,3.0,1.87630,0.00046,397.564,0.031,0.0025,0.0014,140.001,45.002,31518.09436,1.87632,397.576,35.650,45.069,45.001,0.00,0.09,-272.74,-272.80,-7,492,-944,21.7,13.7,-7.2,21.8,14.0,-6.9,5.73,1.71,-3.7,27.9
2015-10-01 00:15:00,3.0,1.87627,0.00033,397.552,0.030,0.0025,0.0017,140.001,45.002,31522.96479,1.87634,397.563,35.722,45.069,45.000,0.00,0.09,-272.75,-272.80,-8,492,-944,21.7,13.6,-7.3,21.9,13.8,-7.0,5.73,2.08,-3.7,27.9
2015-10-01 00:16:00,3.0,1.87620,0.00028,397.565,0.026,0.0014,0.0013,140.000,45.001,31525.13432,1.87622,397.573,35.778,45.068,45.000,0.00,0.09,-272.74,-272.80,-7,492,-944,21.8,13.6,-7.3,21.9,13.8,-7.0,5.73,1.85,-3.7,27.9
2015-10-01 00:17:00,3.0,1.87639,0.00031,397.586,0.030,0.0018,0.0015,139.999,45.001,31528.72769,1.87642,397.594,35.830,45.068,45.000,0.00,0.09,-272.74,-272.80,-7,493,-944,21.8,13.5,-7.3,21.9,13.7,-7.0,5.73,1.86,-3.7,28.0
2015-10-01 00:18:00,3.0,1.87614,0.00030,397.561,0.030,0.0021,0.0020,139.998,45.002,31531.66967,1.87619,397.571,35.885,45.068,45.000,0.00,0.09,-272.73,-272.80,-9,493,-944,21.9,13.6,-7.2,22.0,13.8,-6.9,5.73,2.06,-3.7,28.0
2015-10-01 00:19:00,3.0,1.87631,0.00039,397.573,0.030,0.0016,0.0023,140.001,45.001,31535.05802,1.87635,397.580,35.946,45.068,45.000,0.00,0.09,-272.74,-272.79,-7,493,-944,21.9,13.5,-7.3,22.0,13.7,-7.0,5.73,1.72,-3.7,28.0
2015-10-01 00:20:00,0.0,1.92364,0.01667,393.783,1.617,0.3758,0.1572,140.017,45.001,31742.11065,1.92892,395.606,36.010,45.068,45.000,0.00,0.09,-272.75,-272.80,-9,522,-944,22.0,13.6,-7.1,22.0,13.9,-6.8,5.73,2.09,-3.7,28.1
2015-10-01 00:21:00,0.0,1.92890,0.00045,392.890,0.030,0.4574,0.0033,140.004,45.001,31764.38324,1.93773,395.081,36.070,45.068,45.000,0.00,0.09,-272.74,-272.80,-10,523,-944,22.0,13.6,-7.2,22.1,13.8,-6.9,5.73,1.95,-3.7,28.1
2015-10-01 00:22:00,0.0,1.92868,0.00037,392.867,0.023,0.4591,0.0019,139.999,45.001,31770.47241,1.93750,395.065,36.124,45.068,45.000,0.00,0.09,-272.73,-272.80,-9,524,-944,22.0,13.5,-7.2,22.1,13.8,-6.9,5.73,1.77,-3.7,28.1
2015-10-01 00:23:00,0.0,1.92885,0.00053,392.840,0.044,0.4580,0.0025,140.000,45.001,31778.18581,1.93765,395.035,36.184,45.068,45.000,0.00,0.09,-272.74,-272.80,-8,524,-944,22.0,13.4,-7.3,22.1,13.7,-6.9,5.73,2.10,-3.7,28.1
2015-10-01 00:24:00,0.0,1.92884,0.00052,392.872,0.039,0.4590,0.0029,140.000,45.001,31782.16458,1.93767,395.070,36.234,45.068,45.000,0.00,0.09,-272.73,-272.80,-9,525,-944,22.1,13.4,-7.3,22.1,13.7,-7.0,5.73,1.95,-3.7,28.2
2015-10-01 00:25:00,0.0,1.92915,0.00030,392.864,0.031,0.4616,0.0019,140.002,45.001,31785.82918,1.93804,395.075,36.261,45.068,45.000,0.00,0.09,-272.73,-272.79,-10,525,-944,22.0,13.5,-7.2,22.1,13.7,-6.9,5.73,1.78,-3.7,28.2
2015-10-01 00:26:00,0.0,1.92874,0.00041,392.879,0.035,0.4624,0.0021,140.001,45.001,31791.39754,1.93766,395.094,36.310,45.068,45.000,0.00,0.09,-272.74,-272.80,-9,525,-944,22.1,13.4,-7.2,22.1,13.7,-6.9,5.73,2.11,-3.7,28.2
2015-10-01 00:27:00,0.0,1.92836,0.00049,392.854,0.031,0.4612,0.0031,139.998,45.001,31795.80736,1.93723,395.063,36.337,45.068,45.000,0.00,0.09,-272.74,-272.80,-8,525,-944,22.0,13.4,-7.3,22.2,13.7,-6.9,5.73,1.93,-3.7,28.2
2015-10-01 00:28:00,0.0,1.92867,0.00036,392.854,0.032,0.4601,0.0031,139.999,45.001,31797.35102,1.93753,395.057,36.374,45.068,45.000,0.00,0.09,-272.73,-272.80,-10,525,-944,22.1,13.3,-7.3,22.2,13.6,-6.9,5.73,1.78,-3.7,28.2
2015-10-01 00:29:00,0.0,1.92910,0.00036,392.863,0.033,0.4619,0.0026,139.999,45.001,31799.98542,1.93798,395.076,36.403,45.068,45.001,0.00,0.09,-272.74,-272.80,-10,525,-944,22.1,13.4,-7.3,22.2,13.6,-7.0,5.73,2.12,-3.7,28.3
2015-10-01 00:30:00,0.0,1.92876,0.00026,392.859,0.044,0.4593,0.0030,139.999,45.001,31806.25106,1.93760,395.058,36.437,45.068,45.001,0.00,0.09,-272.74,-272.80,-8,526,-944,22.2,13.3,-7.3,22.2,13.6,-7.0,5.73,1.88,-3.7,28.3
2015-10-01 00:31:00,0.0,1.92906,0.00044,392.875,0.032,0.4610,0.0027,140.000,45.001,31808.98215,1.93791,395.084,36.448,45.068,45.001,0.00,0.09,-272.73,-272.80,-9,525,-945,22.2,13.3,-7.3,22.2,13.5,-7.0,5.73,1.81,-3.7,28.3
2015-10-01 00:32:00,0.0,1.92917,0.00035,392.853,0.036,0.4623,0.0033,140.001,45.001,31810.82237,1.93808,395.067,36.498,45.068,45.001,0.00,0.09,-272.73,-272.79,-10,526,-945,22.2,13.3,-7.3,22.3,13.5,-6.9,5.73,2.13,-3.7,28.3
2015-10-01 00:33:00,0.0,1.92896,0.00054,392.850,0.029,0.4630,0.0029,140.000,45.001,31815.70792,1.93788,395.066,36.512,45.068,45.001,0.00,0.09,-272.74,-272.80,-9,526,-945,22.2,13.3,-7.2,22.3,13.5,-7.0,5.73,1.83,-3.7,28.4
2015-10-01 00:34:00,0.0,1.92896,0.00037,392.890,0.043,0.4680,0.0027,140.001,45.001,31817.34749,1.93795,395.132,36.554,45.068,45.001,0.00,0.09,-272.74,-272.80,-8,526,-945,22.2,13.4,-7.1,22.3,13.6,-6.8,5.73,1.87,-3.7,28.4
2015-10-01 00:35:00,0.0,1.92870,0.00030,392.854,0.031,0.4650,0.0027,139.997,45.001,31820.44846,1.93767,395.082,36.568,45.068,45.001,0.00,0.09,-272.74,-272.79,-10,526,-945,22.2,13.4,-7.2,22.2,13.7,-6.9,5.73,2.12,-3.7,28.4
2015-10-01 00:36:00,0.0,1.92902,0.00032,392.864,0.037,0.4633,0.0019,140.000,45.001,31822.06211,1.93794,395.084,36.613,45.068,45.001,0.00,0.09,-272.73,-272.80,-10,526,-945,22.2,13.3,-7.3,22.3,13.6,-6.9,5.73,1.77,-3.7,28.4
2015-10-01 00:37:00,0.0,1.92900,0.00048,392.880,0.035,0.4617,0.0029,140.001,45.001,31823.81364,1.93787,395.091,36.626,45.068,45.000,0.00,0.09,-272.74,-272.80,-8,526,-945,22.1,13.3,-7.3,22.3,13.5,-7.0,5.73,1.95,-3.7,28.4
2015-10-01 00:38:00,0.0,1.92893,0.00033,392.921,0.031,0.4612,0.0028,140.000,45.000,31823.98582,1.93780,395.129,36.661,45.068,45.001,0.00,0.09,-272.73,-272.81,-9,526,-945,22.1,13.3,-7.3,22.3,13.5,-7.0,5.73,2.08,-3.7,28.4
2015-10-01 00:39:00,0.0,1.92919,0.00037,392.916,0.043,0.4622,0.0021,140.000,45.001,31824.20628,1.93808,395.132,36.683,45.068,45.001,0.00,0.09,-272.73,-272.80,-10,526,-945,22.1,13.3,-7.3,22.3,13.5,-7.0,5.73,1.74,-3.7,28.4
2015-10-01 00:40:00,0.0,1.92913,0.00049,392.919,0.034,0.4634,0.0022,139.998,45.000,31823.96992,1.93805,395.138,36.699,45.068,45.000,0.00,0.09,-272.74,-272.80,-9,526,-945,22.1,13.3,-7.2,22.3,13.6,-6.9,5.73,2.02,-3.7,28.5
2015-10-01 00:41:00,0.0,1.92930,0.00034,392.930,0.029,0.4648,0.0023,139.999,45.000,31825.25560,1.93827,395.157,36.736,45.068,45.000,0.00,0.09,-272.73,-272.80,-9,526,-945,22.1,13.4,-7.2,22.3,13.6,-6.9,5.73,2.02,-3.7,28.5
2015-10-01 00:42:00,0.0,1.92969,0.00034,392.946,0.024,0.4652,0.0021,139.997,45.000,31822.93413,1.93863,395.175,36.750,45.068,45.000,0.00,0.10,-272.74,-272.79,-10,526,-945,22.1,13.4,-7.2,22.2,13.6,-6.9,5.73,1.74,-3.7,28.5
2015-10-01 00:43:00,0.0,1.92960,0.00040,392.954,0.032,0.4647,0.0024,140.001,45.000,31825.44004,1.93855,395.182,36.750,45.068,45.000,0.00,0.09,-272.74,-272.80,-9,526,-945,22.1,13.4,-7.2,22.3,13.5,-7.0,5.73,2.09,-3.7,28.5
2015-10-01 00:44:00,0.0,1.92972,0.00042,392.942,0.034,0.4652,0.0022,140.000,45.000,31826.16655,1.93866,395.170,36.750,45.068,45.000,0.00,0.09,-272.74,-272.80,-8,526,-945,22.1,13.4,-7.2,22.3,13.6,-6.9,5.73,1.93,-3.7,28.5
2015-10-01 00:45:00,0.0,1.92961,0.00034,392.933,0.031,0.4683,0.0027,140.000,45.000,31829.65526,1.93863,395.175,36.755,45.068,45.001,0.00,0.10,-272.73,-272.80,-10,526,-945,22.1,13.4,-7.2,22.3,13.6,-6.9,5.73,1.79,-3.7,28.5
2015-10-01 00:46:00,0.0,1.92985,0.00046,392.956,0.021,0.4678,0.0029,139.998,45.001,31828.20661,1.93886,395.198,36.784,45.068,45.001,0.00,0.09,-272.74,-272.79,-10,526,-945,22.2,13.5,-7.1,22.3,13.6,-6.8,5.73,2.13,-3.7,28.5
2015-10-01 00:47:00,0.0,1.92971,0.00047,392.955,0.024,0.4709,0.0031,139.998,45.000,31831.17138,1.93878,395.211,36.813,45.068,45.001,0.00,0.09,-272.73,-272.80,-8,526,-945,22.1,13.6,-7.0,22.3,13.7,-6.8,5.73,1.82,-3.7,28.6
2015-10-01 00:48:00,0.0,1.92977,0.00048,392.963,0.029,0.4711,0.0025,140.002,45.000,31833.33552,1.93883,395.221,36.816,45.068,45.001,0.00,0.09,-272.74,-272.80,-9,526,-945,22.1,13.6,-7.1,22.3,13.7,-6.8,5.73,1.88,-3.7,28.6
2015-10-01 00:49:00,0.0,1.92980,0.00044,392.964,0.041,0.4658,0.0021,140.000,45.000,31833.99107,1.93877,395.196,36.860,45.068,45.000,0.00,0.09,-272.73,-272.80,-10,526,-945,22.1,13.4,-7.2,22.3,13.6,-6.9,5.73,2.11,-3.7,28.5
2015-10-01 00:50:00,0.0,1.92993,0.00038,392.962,0.031,0.4654,0.0026,140.001,45.000,31834.45816,1.93889,395.192,36.874,45.068,45.000,0.00,0.09,-272.74,-272.80,-8,526,-945,22.1,13.4,-7.2,22.3,13.6,-6.9,5.73,1.74,-3.7,28.6
2015-10-01 00:51:00,0.0,1.93006,0.00030,392.976,0.048,0.4658,0.0041,140.002,45.000,31835.60971,1.93902,395.209,36.876,45.068,45.000,0.00,0.09,-272.74,-272.80,-9,526,-945,22.1,13.4,-7.2,22.3,13.6,-6.9,5.73,2.01,-3.7,28.6
2015-10-01 00:52:00,0.0,1.92976,0.00035,392.965,0.037,0.4674,0.0021,140.000,45.000,31835.94097,1.93877,395.204,36.890,45.068,45.000,0.00,0.09,-272.73,-272.80,-10,526,-945,22.1,13.5,-7.2,22.3,13.6,-6.9,5.73,2.02,-3.7,28.6
2015-10-01 00:53:00,0.0,1.92979,0.00040,392.961,0.038,0.4651,0.0026,140.001,45.000,31837.95572,1.93876,395.190,36.900,45.068,45.000,0.00,0.10,-272.74,-272.80,-9,526,-945,22.1,13.4,-7.2,22.3,13.6,-6.9,5.73,1.75,-3.7,28.6
2015-10-01 00:54:00,0.0,1.92998,0.00041,392.991,0.039,0.4682,0.0023,139.998,45.000,31837.76295,1.93898,395.233,36.918,45.068,45.000,0.00,0.09,-272.74,-272.80,-9,526,-945,22.1,13.5,-7.2,22.3,13.6,-6.9,5.73,2.10,-3.7,28.6
2015-10-01 00:55:00,0.0,1.93018,0.00045,393.006,0.025,0.4681,0.0020,139.999,45.000,31839.18895,1.93920,395.250,36.934,45.068,45.000,0.00,0.09,-272.73,-272.80,-10,526,-945,22.1,13.5,-7.2,22.3,13.6,-6.9,5.73,1.91,-3.7,28.6
2015-10-01 00:56:00,0.0,1.93035,0.00048,392.989,0.038,0.4710,0.0021,140.000,45.000,31840.55601,1.93942,395.247,36.938,45.068,45.000,0.00,0.10,-272.74,-272.79,-9,526,-945,22.1,13.6,-7.1,22.3,13.7,-6.8,5.73,1.81,-3.7,28.6
2015-10-01 00:57:00,0.0,1.92990,0.00035,393.007,0.037,0.4727,0.0034,139.999,45.000,31840.64199,1.93904,395.272,36.944,45.067,45.000,0.00,0.09,-272.75,-272.80,-8,526,-945,22.1,13.6,-7.0,22.3,13.8,-6.7,5.73,2.13,-3.7,28.6
2015-10-01 00:58:00,0.0,1.93005,0.00044,393.017,0.039,0.4680,0.0025,140.000,45.000,31840.86217,1.93903,395.258,36.985,45.067,45.000,0.00,0.09,-272.73,-272.80,-10,526,-945,22.1,13.5,-7.1,22.3,13.7,-6.8,5.73,1.79,-3.7,28.6
2015-10-01 00:59:00,0.0,1.93007,0.00042,392.997,0.035,0.4687,0.0031,140.001,45.000,31840.62895,1.93911,395.243,36.993,45.067,45.000,0.00,0.10,-272.73,-272.79,-10,527,-945,22.1,13.5,-7.1,22.3,13.7,-6.8,5.73,1.94,-3.7,28.7
2015-10-01 01:00:00,0.0,1.92982,0.00050,392.991,0.041,0.4681,0.0019,140.003,45.000,31843.17555,1.93883,395.235,36.999,45.067,45.000,0.00,0.09,-272.74,-272.80,-8,527,-945,22.1,13.5,-7.2,22.3,13.6,-6.8,5.73,2.07,-3.7,28.7
2015-10-01 01:01:00,0.0,1.92993,0.00040,392.993,0.033,0.4681,0.0030,140.002,45.000,31843.21533,1.93892,395.236,37.005,45.067,45.000,0.00,0.09,-272.74,-272.79,-10,526,-945,22.1,13.5,-7.2,22.3,13.6,-6.9,5.73,1.73,-3.7,28.7
2015-10-01 01:02:00,0.0,1.93025,0.00049,393.019,0.035,0.4719,0.0030,139.999,45.000,31844.33997,1.93934,395.281,37.010,45.067,45.000,0.00,0.09,-272.73,-272.79,-10,527,-946,22.1,13.6,-7.0,22.3,13.7,-6.8,5.73,2.08,-3.7,28.7
2015-10-01 01:03:00,0.0,1.93017,0.00039,392.999,0.030,0.4752,0.0061,139.999,45.000,31843.07404,1.93935,395.277,37.029,45.067,45.000,0.00,0.09,-272.73,-272.80,-8,526,-945,22.1,13.7,-7.0,22.3,13.9,-6.6,5.73,1.92,-3.7,28.7
2015-10-01 01:04:00,0.0,1.93026,0.00049,392.994,0.030,0.4682,0.0028,139.999,45.000,31842.86501,1.93925,395.238,37.061,45.068,45.000,0.00,0.09,-272.74,-272.80,-9,526,-945,22.0,13.5,-7.1,22.3,13.7,-6.8,5.73,1.80,-3.7,28.7
2015-10-01 01:05:00,0.0,1.93054,0.00049,393.025,0.028,0.4755,0.0030,139.999,45.000,31843.22138,1.93972,395.303,37.063,45.067,45.000,0.00,0.09,-272.73,-272.80,-10,526,-945,22.0,13.7,-7.0,22.3,13.8,-6.7,5.73,2.13,-3.7,28.7
2015-10-01 01:06:00,0.0,1.93011,0.00033,393.018,0.032,0.4722,0.0029,140.000,45.000,31844.29936,1.93921,395.283,37.063,45.067,45.000,0.00,0.10,-272.73,-272.80,-9,526,-946,22.0,13.7,-7.0,22.2,13.8,-6.7,5.73,1.79,-3.7,28.7
2015-10-01 01:07:00,0.0,1.93035,0.00031,393.021,0.031,0.4735,0.0023,140.001,45.000,31844.89056,1.93947,395.290,37.070,45.067,45.000,0.00,0.09,-272.74,-272.80,-9,526,-945,22.0,13.7,-7.0,22.3,13.8,-6.7,5.73,1.94,-3.7,28.7
2015-10-01 01:08:00,0.0,1.93032,0.00039,393.019,0.029,0.4790,0.0030,139.998,45.000,31844.61442,1.93956,395.316,37.110,45.067,45.000,0.00,0.09,-272.74,-272.80,-10,526,-945,22.0,13.8,-6.9,22.3,13.9,-6.6,5.73,2.07,-3.7,28.7
2015-10-01 01:09:00,0.0,1.93011,0.00033,392.989,0.033,0.4755,0.0021,139.999,45.000,31844.22529,1.93927,395.268,37.120,45.067,45.000,0.00,0.10,-272.73,-272.79,-9,527,-946,22.0,13.8,-7.0,22.2,13.9,-6.6,5.73,1.73,-3.7,28.7
2015-10-01 01:10:00,0.0,1.93039,0.00030,392.987,0.037,0.4762,0.0031,140.001,45.000,31844.74592,1.93954,395.268,37.123,45.067,45.000,0.00,0.09,-272.74,-272.79,-9,526,-946,22.0,13.8,-6.9,22.3,13.9,-6.6,5.73,2.08,-3.7,28.7
2015-10-01 01:11:00,0.0,1.93058,0.00050,392.999,0.033,0.4803,0.0033,140.000,45.000,31845.82523,1.93984,395.301,37.121,45.067,45.000,0.00,0.09,-272.74,-272.81,-10,526,-946,22.0,13.9,-6.8,22.3,14.0,-6.5,5.73,1.93,-3.7,28.7
2015-10-01 01:12:00,0.0,1.93069,0.00046,393.000,0.032,0.4828,0.0023,140.001,45.000,31846.05765,1.93999,395.313,37.118,45.067,45.000,0.00,0.09,-272.73,-272.79,-9,527,-946,22.0,14.0,-6.8,22.3,14.0,-6.5,5.73,1.80,-3.7,28.7
2015-10-01 01:13:00,0.0,1.93030,0.00038,392.984,0.037,0.4802,0.0036,139.999,45.000,31845.74399,1.93954,395.287,37.101,45.067,45.000,0.00,0.09,-272.73,-272.79,-8,526,-946,22.0,13.9,-6.8,22.3,14.0,-6.5,5.73,2.13,-3.7,28.7
2015-10-01 01:14:00,0.0,1.93032,0.00047,392.999,0.041,0.4821,0.0026,140.001,45.000,31847.34880,1.93962,395.311,37.078,45.068,45.000,0.00,0.09,-272.74,-272.80,-10,526,-946,22.0,13.9,-6.8,22.3,14.1,-6.5,5.73,1.78,-3.7,28.7
2015-10-01 01:15:00,0.0,1.93072,0.00062,393.017,0.033,0.4832,0.0035,139.997,45.000,31844.88685,1.94001,395.333,37.083,45.068,45.000,0.00,0.09,-272.75,-272.79,-9,526,-946,22.0,14.0,-6.7,22.3,14.1,-6.5,5.73,1.95,-3.7,28.7
2015-10-01 01:16:00,0.0,1.93085,0.00046,392.998,0.031,0.4823,0.0022,139.997,45.000,31843.84667,1.94016,395.311,37.083,45.068,45.001,0.00,0.09,-272.73,-272.80,-9,526,-946,22.0,14.0,-6.8,22.3,14.1,-6.4,5.73,2.06,-3.7,28.7
2015-10-01 01:17:00,0.0,1.93078,0.00034,392.997,0.026,0.4844,0.0029,139.998,45.000,31845.17430,1.94013,395.319,37.117,45.068,45.001,0.00,0.09,-272.74,-272.80,-10,526,-946,22.0,14.0,-6.7,22.2,14.1,-6.5,5.73,1.73,-3.7,28.7
2015-10-01 01:18:00,0.0,1.93104,0.00049,393.019,0.040,0.4874,0.0040,139.999,45.000,31844.26630,1.94042,395.356,37.125,45.068,45.000,0.00,0.09,-272.74,-272.81,-9,527,-946,22.0,14.1,-6.6,22.2,14.2,-6.4,5.73,2.10,-3.7,28.7
2015-10-01 01:19:00,0.0,1.93076,0.00045,393.003,0.029,0.4856,0.0040,139.999,45.000,31843.22835,1.94012,395.332,37.125,45.068,45.000,0.00,0.09,-272.73,-272.80,-9,526,-946,22.0,14.1,-6.7,22.2,14.2,-6.4,5.73,1.89,-3.7,28.7
2015-10-01 01:20:00,0.0,1.93072,0.00052,392.963,0.042,0.4884,0.0028,139.999,45.000,31843.56357,1.94015,395.305,37.125,45.067,45.000,0.00,0.09,-272.73,-272.79,-10,526,-946,21.9,14.2,-6.6,22.2,14.2,-6.4,5.73,1.82,-3.7,28.7
2015-10-01 01:21:00,0.0,1.93071,0.00042,392.975,0.034,0.4925,0.0023,140.005,45.000,31845.90668,1.94022,395.338,37.125,45.068,45.000,0.00,0.09,-272.74,-272.81,-10,526,-946,22.0,14.3,-6.5,22.2,14.3,-6.3,5.73,2.13,-3.7,28.7
2015-10-01 01:22:00,0.0,1.93047,0.00039,392.965,0.042,0.4878,0.0022,139.998,45.000,31845.05564,1.93987,395.303,37.132,45.068,45.000,0.00,0.09,-272.73,-272.80,-8,526,-946,22.0,14.1,-6.6,22.2,14.3,-6.3,5.73,1.76,-3.7,28.7
2015-10-01 01:23:00,0.0,1.93036,0.00051,392.969,0.038,0.4937,0.0021,140.000,45.000,31845.27273,1.93990,395.337,37.129,45.068,45.000,0.00,0.09,-272.74,-272.79,-9,526,-945,22.0,14.3,-6.5,22.2,14.4,-6.2,5.73,1.98,-3.7,28.8
2015-10-01 01:24:00,0.0,1.92983,0.00046,392.927,0.023,0.4937,0.0021,139.999,45.000,31846.02575,1.93937,395.295,37.133,45.067,45.000,0.00,0.09,-272.74,-272.80,-10,526,-946,22.0,14.3,-6.5,22.2,14.4,-6.2,5.73,2.03,-3.7,28.7
2015-10-01 01:25:00,0.0,1.93027,0.00044,392.925,0.030,0.4951,0.0043,139.999,45.000,31846.45740,1.93977,395.299,37.128,45.067,45.000,0.00,0.09,-272.73,-272.80,-8,526,-946,22.0,14.3,-6.4,22.2,14.4,-6.2,5.73,1.74,-3.7,28.7
2015-10-01 01:26:00,0.0,1.93003,0.00036,392.900,0.050,0.4997,0.0032,140.000,45.000,31845.39347,1.93971,395.299,37.126,45.067,45.000,0.00,0.09,-272.74,-272.79,-9,526,-946,22.0,14.5,-6.3,22.2,14.6,-6.0,5.73,2.11,-3.7,28.7
2015-10-01 01:27:00,0.0,1.92964,0.00038,392.875,0.038,0.4938,0.0018,139.999,45.000,31846.29063,1.93914,395.242,37.118,45.067,45.000,0.00,0.09,-272.73,-272.80,-10,526,-945,22.0,14.3,-6.4,22.2,14.5,-6.1,5.73,1.87,-3.7,28.7
2015-10-01 01:28:00,0.0,1.92979,0.00039,392.880,0.037,0.4993,0.0036,139.998,45.000,31845.57863,1.93941,395.274,37.070,45.067,45.000,0.00,0.09,-272.74,-272.79,-9,527,-945,22.0,14.5,-6.3,22.2,14.5,-6.1,5.73,1.82,-3.7,28.7
2015-10-01 01:29:00,0.0,1.93028,0.00041,392.904,0.035,0.5044,0.0019,140.001,45.000,31844.54444,1.93997,395.322,36.995,45.067,44.999,0.00,0.09,-272.74,-272.79,-9,526,-945,21.9,14.7,-6.2,22.2,14.7,-6.0,5.73,2.12,-3.7,28.6
2015-10-01 01:30:00,0.0,1.93062,0.00036,392.917,0.032,0.5056,0.0024,140.000,44.999,31840.21609,1.94037,395.343,36.897,45.067,44.999,0.00,0.09,-272.73,-272.80,-10,526,-945,21.8,14.7,-6.2,22.1,14.8,-5.9,5.73,1.90,-3.7,28.6
2015-10-01 01:31:00,0.0,1.93021,0.00035,392.867,0.042,0.5058,0.0021,140.000,44.998,31839.42899,1.93997,395.295,36.728,45.066,44.998,0.00,0.09,-272.74,-272.80,-10,527,-945,21.8,14.8,-6.2,22.1,14.8,-5.9,5.73,1.78,-3.7,28.5
2015-10-01 01:32:00,0.0,1.93057,0.00027,392.865,0.036,0.5051,0.0024,139.999,44.997,31832.20797,1.94031,395.288,36.521,45.065,44.997,0.00,0.09,-272.74,-272.80,-9,526,-945,21.8,14.8,-6.2,22.1,14.8,-5.9,5.73,1.89,-3.7,28.3
2015-10-01 01:33:00,0.0,1.93053,0.00049,392.880,0.042,0.5030,0.0029,139.999,44.996,31825.46742,1.94022,395.293,36.292,45.064,44.997,0.00,0.09,-272.73,-272.80,-9,526,-944,21.7,14.8,-6.2,22.0,14.8,-6.0,5.73,1.99,-3.7,28.3
2015-10-01 01:34:00,0.0,1.93046,0.00047,392.920,0.043,0.5045,0.0023,139.998,44.996,31813.62563,1.94019,395.339,36.060,45.064,44.996,0.00,0.09,-272.74,-272.80,-9,526,-944,21.7,14.8,-6.2,22.0,14.9,-6.0,5.73,2.04,-3.7,28.2
2015-10-01 01:35:00,0.0,1.93023,0.00062,392.919,0.028,0.5041,0.0019,139.998,44.995,31804.01603,1.93999,395.338,35.840,45.064,44.997,0.00,0.09,-272.74,-272.80,-9,526,-943,21.6,14.9,-6.2,21.9,14.9,-6.0,5.73,2.01,-3.7,28.1
2015-10-01 01:36:00,0.0,1.93007,0.00039,392.911,0.031,0.5043,0.0025,139.999,44.995,31796.27515,1.93980,395.328,35.623,45.064,44.997,0.00,0.09,-272.73,-272.80,-9,526,-943,21.6,14.9,-6.2,21.9,14.9,-6.0,5.73,1.92,-3.7,28.0
2015-10-01 01:37:00,0.0,1.93009,0.00046,392.902,0.037,0.5055,0.0025,140.001,44.995,31786.05045,1.93980,395.328,35.424,45.065,44.998,0.00,0.09,-272.74,-272.80,-9,526,-943,21.5,15.0,-6.2,21.8,15.0,-6.0,5.73,1.83,-3.7,27.9
2015-10-01 01:38:00,0.0,1.93006,0.00037,392.896,0.046,0.5023,0.0037,140.000,44.996,31778.88107,1.93976,395.307,35.292,45.066,44.999,0.00,0.09,-272.74,-272.80,-9,525,-942,21.4,15.0,-6.3,21.7,15.0,-6.0,5.73,1.81,-3.8,27.8
2015-10-01 01:39:00,0.0,1.93052,0.00035,392.916,0.040,0.5034,0.0020,139.998,44.997,31774.02315,1.94020,395.330,35.219,45.067,45.000,0.00,0.09,-272.74,-272.79,-10,525,-942,21.4,15.0,-6.3,21.7,15.0,-6.1,5.73,1.99,-3.8,27.8
2015-10-01 01:40:00,0.0,1.93056,0.00038,392.928,0.048,0.5074,0.0020,139.999,44.998,31771.89389,1.94037,395.363,35.225,45.068,45.001,0.00,0.09,-272.74,-272.80,-10,525,-943,21.4,15.1,-6.2,21.7,15.1,-6.0,5.73,2.10,-3.8,27.8
2015-10-01 01:41:00,0.0,1.93049,0.00047,392.892,0.041,0.5034,0.0025,140.000,44.999,31774.67925,1.94019,395.307,35.253,45.069,45.002,0.00,0.09,-272.73,-272.80,-9,525,-943,21.4,15.0,-6.3,21.7,15.1,-6.0,5.73,1.85,-3.8,27.7
2015-10-01 01:42:00,0.0,1.93059,0.00034,392.917,0.029,0.5057,0.0025,140.000,45.001,31774.24120,1.94034,395.343,35.320,45.070,45.002,0.00,0.09,-272.73,-272.80,-8,525,-943,21.4,15.1,-6.2,21.7,15.1,-6.0,5.73,1.81,-3.8,27.8
2015-10-01 01:43:00,0.0,1.93076,0.00060,392.956,0.048,0.5102,0.0043,140.000,45.001,31771.60192,1.94065,395.406,35.398,45.070,45.002,0.00,0.09,-272.74,-272.80,-9,525,-943,21.4,15.2,-6.2,21.7,15.2,-5.9,5.73,2.10,-3.8,27.8
2015-10-01 01:44:00,0.0,1.92995,0.00045,392.878,0.038,0.5033,0.0031,139.998,45.002,31771.65481,1.93967,395.292,35.480,45.069,45.001,0.00,0.09,-272.74,-272.80,-10,525,-943,21.4,15.0,-6.3,21.7,15.2,-5.9,5.73,1.98,-3.8,27.8
2015-10-01 01:45:00,0.0,1.92962,0.00048,392.852,0.041,0.4987,0.0021,139.999,45.002,31774.15799,1.93919,395.245,35.550,45.069,45.001,0.00,0.09,-272.74,-272.80,-9,525,-943,21.4,14.9,-6.4,21.7,15.0,-6.1,5.73,1.76,-3.8,27.8